Weather History for North Bend, OR

Change the Weather History Date:

Thursday, September 15, 2011

  Actual Average Record
Temperature  
Mean Temperature 58 °F 58 °F  
Max Temperature 66 °F 65 °F 78 °F (1991)
Min Temperature 50 °F 50 °F 39 °F (1927)
Degree Days  
Heating Degree Days 7 7  
Month to date heating degree days 127 100  
Since 1 July heating degree days 477 479  
Cooling Degree Days 0 0  
Month to date cooling degree days 0 0  
Year to date cooling degree days 1 1  
Growing Degree Days 8 (Base 50)    
Moisture  
Dew Point 50 °F    
Average Humidity 75    
Maximum Humidity 89    
Minimum Humidity 58    
Precipitation  
Precipitation 0.00 in 0.05 in 1.69 in (1997)
Month to date precipitation 0.00 0.61  
Year to date precipitation 27.98 37.85  
Sea Level Pressure  
Sea Level Pressure 30.07 in    
Wind  
Wind Speed 7 mph (NW)    
Max Wind Speed 18 mph    
Max Gust Speed -    
Visibility 8 miles    
Events      
T = Trace of Precipitation, MM = Missing Value Source: NWS Daily Summary

Daily Weather History Graph

Daily Weather History Graph

Search for Another Location

Airport:

Trip Planner

Search our weather history database for the weather conditions in past years. The results will help you decide how hot, cold, wet, or windy it might be!

Date:

Astronomy

Sep. 15, 2011 Rise Set
Actual Time 6:56 AM PDT 7:27 PM PDT
Civil Twilight 6:27 AM PDT 7:56 PM PDT
Nautical Twilight 5:53 AM PDT 8:29 PM PDT
Astronomical Twilight 5:18 AM PDT 9:04 PM PDT
Moon 8:37 PM PDT (9/15) 10:18 AM PDT (9/15)
Length of Visible Light 13h 28m
Length of Day
12h 31m
Waning Gibbous, 90% of the Moon is Illuminated
Sep 15
Waning Gibbous
Sep 20
Last Quarter
Sep 27
New
Oct 3
First Quarter
Oct 11
Full

Hourly Weather History & Observations

Time (PDT) Temp. Dew Point Humidity Pressure Visibility Wind Dir Wind Speed Gust Speed Precip Events Conditions
12:15 AM 55.4 °F 51.8 °F 88% 30.06 in 10.0 mi NNW 3.5 mph - N/A   Overcast
12:35 AM 55.4 °F 50.0 °F 82% 30.06 in 9.0 mi NW 3.5 mph - N/A   Overcast
12:55 AM 55.4 °F 48.2 °F 77% 30.06 in 5.0 mi West 5.8 mph - N/A   Overcast
1:15 AM 53.6 °F 48.2 °F 82% 30.06 in 2.5 mi West 3.5 mph - N/A   Overcast
1:35 AM 53.6 °F 50.0 °F 88% 30.07 in 1.0 mi West 5.8 mph - N/A   Overcast
1:55 AM 53.6 °F 48.2 °F 82% 30.06 in 0.5 mi West 5.8 mph - N/A   Overcast
2:15 AM 53.6 °F 48.2 °F 82% 30.06 in 0.2 mi West 5.8 mph - N/A   Overcast
2:35 AM 53.6 °F 48.2 °F 82% 30.07 in 0.2 mi West 5.8 mph - N/A   Overcast
2:55 AM 53.6 °F 48.2 °F 82% 30.06 in 1.5 mi West 4.6 mph - N/A   Overcast
3:15 AM 53.6 °F 48.2 °F 82% 30.06 in 6.0 mi WNW 3.5 mph - N/A   Overcast
3:35 AM 53.6 °F 50.0 °F 88% 30.06 in 8.0 mi Calm Calm - N/A   Overcast
3:55 AM 53.6 °F 50.0 °F 88% 30.06 in 6.0 mi Calm Calm - N/A   Overcast
4:15 AM 53.6 °F 48.2 °F 82% 30.06 in 10.0 mi Calm Calm - N/A   Overcast
4:35 AM 53.6 °F 48.2 °F 82% 30.06 in 10.0 mi NW 4.6 mph - N/A   Overcast
4:55 AM 53.6 °F 48.2 °F 82% 30.06 in 10.0 mi NNW 4.6 mph - N/A   Overcast
5:15 AM 51.8 °F 46.4 °F 82% 30.06 in 3.0 mi West 5.8 mph - N/A   Overcast
5:35 AM 51.8 °F 46.4 °F 82% 30.06 in 5.0 mi West 3.5 mph - N/A   Overcast
5:55 AM 51.8 °F 46.4 °F 82% 30.06 in 4.0 mi West 4.6 mph - N/A   Mostly Cloudy
6:15 AM 51.8 °F 46.4 °F 82% 30.06 in 5.0 mi West 3.5 mph - N/A   Overcast
6:35 AM 51.8 °F 46.4 °F 82% 30.06 in 6.0 mi Calm Calm - N/A   Overcast
6:55 AM 53.6 °F 48.2 °F 82% 30.07 in 8.0 mi Calm Calm - N/A   Overcast
7:15 AM 53.6 °F 48.2 °F 82% 30.07 in 8.0 mi Calm Calm - N/A   Overcast
7:35 AM 53.6 °F 48.2 °F 82% 30.07 in 6.0 mi SE 4.6 mph - N/A   Overcast
7:55 AM 53.6 °F 48.2 °F 82% 30.07 in 7.0 mi SE 3.5 mph - N/A   Overcast
8:15 AM 55.4 °F 48.2 °F 77% 30.07 in 9.0 mi SE 4.6 mph - N/A   Overcast
8:35 AM 55.4 °F 50.0 °F 82% 30.08 in 10.0 mi SSE 4.6 mph - N/A   Overcast
8:55 AM 55.4 °F 50.0 °F 82% 30.08 in 10.0 mi ESE 3.5 mph - N/A   Overcast
9:15 AM 57.2 °F 51.8 °F 82% 30.08 in 10.0 mi East 3.5 mph - N/A   Overcast
9:35 AM 59.0 °F 51.8 °F 77% 30.08 in 10.0 mi East 3.5 mph - N/A   Mostly Cloudy
9:55 AM 62.6 °F 51.8 °F 68% 30.09 in 10.0 mi Calm Calm - N/A   Partly Cloudy
10:15 AM 62.6 °F 51.8 °F 68% 30.09 in 10.0 mi North 4.6 mph - N/A   Clear
10:35 AM 62.6 °F 51.8 °F 68% 30.09 in 10.0 mi West 4.6 mph - N/A   Partly Cloudy
10:55 AM 62.6 °F 51.8 °F 68% 30.09 in 10.0 mi WNW 5.8 mph - N/A   Clear
11:15 AM 60.8 °F 51.8 °F 72% 30.09 in 10.0 mi West 8.1 mph - N/A   Clear
11:35 AM 60.8 °F 51.8 °F 72% 30.09 in 10.0 mi West 8.1 mph - N/A   Clear
11:55 AM 60.8 °F 51.8 °F 72% 30.09 in 10.0 mi WNW 9.2 mph - N/A   Clear
12:15 PM 62.6 °F 51.8 °F 68% 30.09 in 10.0 mi NNW 10.4 mph - N/A   Clear
12:35 PM 62.6 °F 51.8 °F 68% 30.09 in 10.0 mi NW 11.5 mph - N/A   Clear
12:55 PM 64.4 °F 51.8 °F 64% 30.09 in 10.0 mi NNW 9.2 mph - N/A   Clear
1:15 PM 64.4 °F 51.8 °F 64% 30.09 in 10.0 mi NNW 12.7 mph - N/A   Clear
1:35 PM 62.6 °F 51.8 °F 68% 30.08 in 10.0 mi NNW 11.5 mph - N/A   Clear
1:55 PM 64.4 °F 51.8 °F 64% 30.08 in 10.0 mi NNW 11.5 mph - N/A   Clear
2:15 PM 64.4 °F 51.8 °F 64% 30.08 in 10.0 mi NNW 13.8 mph - N/A   Clear
2:35 PM 64.4 °F 51.8 °F 64% 30.08 in 10.0 mi North 10.4 mph - N/A   Clear
2:55 PM 66.2 °F 51.8 °F 60% 30.07 in 10.0 mi North 12.7 mph - N/A   Clear
3:15 PM 66.2 °F 51.8 °F 60% 30.06 in 10.0 mi NNW 10.4 mph - N/A   Clear
3:35 PM 66.2 °F 51.8 °F 60% 30.07 in 10.0 mi NNW 10.4 mph - N/A   Clear
3:55 PM 64.4 °F 51.8 °F 64% 30.07 in 10.0 mi NNW 12.7 mph - N/A   Clear
4:15 PM 66.2 °F 51.8 °F 60% 30.06 in 10.0 mi North 13.8 mph - N/A   Clear
4:35 PM 66.2 °F 51.8 °F 60% 30.06 in 10.0 mi North 15.0 mph - N/A   Clear
4:55 PM 64.4 °F 51.8 °F 64% 30.06 in 10.0 mi NNW 13.8 mph - N/A   Clear
5:15 PM 64.4 °F 51.8 °F 64% 30.06 in 10.0 mi NNW 15.0 mph - N/A   Clear
5:35 PM 62.6 °F 51.8 °F 68% 30.06 in 10.0 mi North 15.0 mph - N/A   Clear
5:55 PM 62.6 °F 51.8 °F 68% 30.06 in 10.0 mi North 18.4 mph - N/A   Clear
6:15 PM 60.8 °F 51.8 °F 72% 30.05 in 10.0 mi North 16.1 mph - N/A   Clear
6:35 PM 60.8 °F 51.8 °F 72% 30.05 in 10.0 mi North 15.0 mph - N/A   Clear
6:55 PM 60.8 °F 51.8 °F 72% 30.05 in 10.0 mi North 13.8 mph - N/A   Clear
7:15 PM 60.8 °F 51.8 °F 72% 30.05 in 10.0 mi North 15.0 mph - N/A   Clear
7:35 PM 59.0 °F 50.0 °F 72% 30.05 in 10.0 mi North 12.7 mph - N/A   Clear
7:55 PM 59.0 °F 51.8 °F 77% 30.06 in 10.0 mi North 11.5 mph - N/A   Clear
8:15 PM 57.2 °F 51.8 °F 82% 30.06 in 10.0 mi North 11.5 mph - N/A   Clear
8:35 PM 57.2 °F 51.8 °F 82% 30.06 in 10.0 mi North 9.2 mph - N/A   Clear
8:55 PM 57.2 °F 50.0 °F 77% 30.06 in 10.0 mi North 5.8 mph - N/A   Clear
9:15 PM 57.2 °F 50.0 °F 77% 30.06 in 10.0 mi North 4.6 mph - N/A   Clear
9:35 PM 55.4 °F 48.2 °F 77% 30.06 in 10.0 mi North - - N/A   Clear
9:55 PM 55.4 °F 48.2 °F 77% 30.06 in 10.0 mi North - - N/A   Clear
10:15 PM 55.4 °F 50.0 °F 82% 30.06 in 10.0 mi Calm Calm - N/A   Clear
10:35 PM 53.6 °F 48.2 °F 82% 30.06 in 10.0 mi Calm Calm - N/A   Clear
10:55 PM 53.6 °F 48.2 °F 82% 30.06 in 10.0 mi Calm Calm - N/A   Clear
11:15 PM 55.4 °F 48.2 °F 77% 30.06 in 10.0 mi Calm Calm - N/A   Clear
11:35 PM 53.6 °F 48.2 °F 82% 30.06 in 10.0 mi Calm Calm - N/A   Clear
11:55 PM 51.8 °F 46.4 °F 82% 30.05 in 9.0 mi Calm Calm - N/A   Clear